When you browse on this site, cookies collect data to enhance your experience and personalize the content and advertising you see.
Visit our Privacy Policy to learn more. By continuing to use the site, you agree to this use of cookies and data.
  • In France
  • List of Countries
  • For 7 days
  • Water Temperature
  • Weather Map
  • Weather Widgets
  • user-avatar
    Login

    Hourly Weather Vancouver

    Today, 3 April, Friday

    Time Temperature Precipitation Wind Pressure Humidity
    00:00 +2°C° 0.1 mm 2 mps 760 mmHg 93%
    01:00 +1°C° 0.1 mm 3 mps 759 mmHg 94%
    02:00 +1°C° 0.2 mm 3 mps 759 mmHg 94%
    03:00 +2°C° 0.2 mm 2 mps 759 mmHg 94%
    04:00 +1°C° 0 mm 3 mps 759 mmHg 96%
    05:00 +1°C° 0.2 mm 3 mps 758 mmHg 94%
    06:00 +2°C° 0.2 mm 3 mps 758 mmHg 92%
    07:00 +2°C° 0.2 mm 3 mps 758 mmHg 90%
    08:00 +3°C° 0.3 mm 4 mps 758 mmHg 85%
    09:00 +4°C° 0.3 mm 4 mps 757 mmHg 81%
    10:00 +5°C° 0.3 mm 5 mps 757 mmHg 76%
    11:00 +5°C° 0.2 mm 4 mps 757 mmHg 72%
    12:00 +6°C° 0.2 mm 4 mps 757 mmHg 68%
    13:00 +6°C° 0.2 mm 4 mps 757 mmHg 63%
    14:00 +6°C° 0.1 mm 4 mps 756 mmHg 61%
    15:00 +6°C° 0.1 mm 4 mps 756 mmHg 58%
    16:00 +7°C° 0.1 mm 3 mps 756 mmHg 55%
    17:00 +5°C° 0 mm 3 mps 756 mmHg 62%
    18:00 +4°C° 0 mm 2 mps 756 mmHg 70%
    19:00 +4°C° 0 mm 1 mps 756 mmHg 77%
    20:00 +3°C° 0 mm 1 mps 756 mmHg 80%
    21:00 +2°C° 0 mm 2 mps 756 mmHg 82%
    22:00 +1°C° 0 mm 2 mps 757 mmHg 85%
    23:00 +1°C° 0 mm 2 mps 756 mmHg 84%

    Tomorrow, 4 April, Saturday

    Time Temperature Precipitation Wind Pressure Humidity
    00:00 +1°C° 0 mm 2 mps 756 mmHg 84%
    01:00 0°C° 0 mm 3 mps 756 mmHg 84%
    02:00 0°C° 0 mm 3 mps 756 mmHg 83%
    03:00 0°C° 0 mm 3 mps 755 mmHg 81%
    04:00 0°C° 0 mm 3 mps 755 mmHg 80%
    05:00 +1°C° 0 mm 3 mps 754 mmHg 80%
    06:00 +1°C° 0 mm 3 mps 754 mmHg 79%
    07:00 +1°C° 0 mm 3 mps 753 mmHg 79%
    08:00 +4°C° 0 mm 2 mps 753 mmHg 72%
    09:00 +6°C° 0 mm 2 mps 752 mmHg 64%
    10:00 +9°C° 0 mm 1 mps 752 mmHg 57%
    11:00 +10°C° 0 mm 1 mps 751 mmHg 54%
    12:00 +10°C° 0 mm 2 mps 750 mmHg 50%
    13:00 +10°C° 0 mm 2 mps 750 mmHg 47%
    14:00 +10°C° 0 mm 2 mps 749 mmHg 48%
    15:00 +10°C° 0 mm 2 mps 749 mmHg 49%
    16:00 +9°C° 0 mm 3 mps 748 mmHg 50%
    17:00 +8°C° 0 mm 3 mps 748 mmHg 58%
    18:00 +7°C° 0 mm 3 mps 748 mmHg 66%
    19:00 +4°C° 0 mm 4 mps 748 mmHg 75%
    20:00 +4°C° 0 mm 3 mps 749 mmHg 73%
    21:00 +3°C° 0 mm 3 mps 749 mmHg 72%
    22:00 +3°C° 0 mm 3 mps 749 mmHg 70%
    23:00 +3°C° 0 mm 3 mps 749 mmHg 69%

    Day after tomorrow, 5 April, Sunday

    Time Temperature Precipitation Wind Pressure Humidity
    00:00 +4°C° 0 mm 2 mps 749 mmHg 68%
    01:00 +4°C° 0 mm 2 mps 749 mmHg 67%
    02:00 +3°C° 0 mm 2 mps 749 mmHg 67%
    03:00 +3°C° 0 mm 2 mps 749 mmHg 67%
    04:00 +3°C° 0 mm 2 mps 749 mmHg 68%
    05:00 +3°C° 0 mm 2 mps 749 mmHg 66%
    06:00 +3°C° 0 mm 2 mps 749 mmHg 65%
    07:00 +4°C° 0 mm 2 mps 749 mmHg 64%
    08:00 +7°C° 0 mm 1 mps 749 mmHg 58%
    09:00 +9°C° 0 mm 1 mps 749 mmHg 53%
    10:00 +11°C° 0 mm 1 mps 748 mmHg 47%
    11:00 +11°C° 0 mm 1 mps 748 mmHg 48%
    12:00 +12°C° 0 mm 2 mps 748 mmHg 48%
    13:00 +13°C° 0 mm 2 mps 748 mmHg 48%
    14:00 +12°C° 0 mm 2 mps 748 mmHg 50%
    15:00 +12°C° 0 mm 2 mps 748 mmHg 53%
    16:00 +10°C° 0 mm 2 mps 748 mmHg 55%
    17:00 +10°C° 0 mm 1 mps 748 mmHg 61%
    18:00 +8°C° 0 mm 1 mps 748 mmHg 66%
    19:00 +7°C° 0 mm 1 mps 749 mmHg 71%
    20:00 +7°C° 0 mm 1 mps 749 mmHg 74%
    21:00 +6°C° 0 mm 1 mps 750 mmHg 77%
    22:00 +5°C° 0 mm 1 mps 751 mmHg 80%
    23:00 +5°C° 0 mm 1 mps 751 mmHg 80%

    6 April, Monday

    Time Temperature Precipitation Wind Pressure Humidity
    00:00 +5°C° 0 mm 1 mps 751 mmHg 81%
    01:00 +3°C° 0 mm 2 mps 751 mmHg 81%
    02:00 +3°C° 0 mm 2 mps 752 mmHg 81%
    03:00 +4°C° 0 mm 1 mps 752 mmHg 80%
    04:00 +4°C° 0 mm 1 mps 752 mmHg 79%
    05:00 +4°C° 0 mm 1 mps 753 mmHg 76%
    06:00 +5°C° 0 mm 1 mps 753 mmHg 74%
    07:00 +5°C° 0 mm 1 mps 753 mmHg 71%
    08:00 +7°C° 0 mm 1 mps 753 mmHg 66%
    09:00 +9°C° 0 mm 1 mps 753 mmHg 62%
    10:00 +10°C° 0 mm 2 mps 753 mmHg 58%
    11:00 +12°C° 0 mm 2 mps 753 mmHg 57%
    12:00 +12°C° 0 mm 2 mps 753 mmHg 56%
    13:00 +13°C° 0 mm 1 mps 753 mmHg 56%
    14:00 +12°C° 0 mm 2 mps 753 mmHg 54%
    15:00 +12°C° 0 mm 2 mps 753 mmHg 53%
    16:00 +12°C° 0 mm 2 mps 753 mmHg 52%
    17:00 +11°C° 0 mm 1 mps 754 mmHg 58%
    18:00 +9°C° 0 mm 1 mps 755 mmHg 65%
    19:00 +7°C° 0 mm 0 mps 755 mmHg 71%
    20:00 +7°C° 0 mm 1 mps 756 mmHg 72%
    21:00 +7°C° 0 mm 1 mps 757 mmHg 73%
    22:00 +7°C° 0 mm 1 mps 757 mmHg 74%
    23:00 +7°C° 0 mm 1 mps 758 mmHg 76%

    7 April, Tuesday

    Time Temperature Precipitation Wind Pressure Humidity
    00:00 +7°C° 0 mm 1 mps 758 mmHg 78%
    01:00 +6°C° 0 mm 1 mps 758 mmHg 80%
    02:00 +6°C° 0 mm 1 mps 759 mmHg 81%
    03:00 +6°C° 0 mm 1 mps 759 mmHg 82%
    04:00 +5°C° 0 mm 1 mps 759 mmHg 83%
    05:00 +6°C° 0 mm 1 mps 759 mmHg 82%
    06:00 +6°C° 0 mm 1 mps 760 mmHg 81%
    07:00 +7°C° 0 mm 1 mps 760 mmHg 79%
    08:00 +8°C° 0 mm 1 mps 760 mmHg 75%
    09:00 +10°C° 0 mm 1 mps 760 mmHg 71%
    10:00 +11°C° 0 mm 1 mps 760 mmHg 67%
    11:00 +10°C° 0 mm 2 mps 760 mmHg 66%
    12:00 +12°C° 0 mm 2 mps 760 mmHg 66%
    13:00 +12°C° 0 mm 2 mps 760 mmHg 66%
    14:00 +12°C° 0 mm 2 mps 760 mmHg 65%
    15:00 +13°C° 0 mm 1 mps 760 mmHg 64%
    16:00 +13°C° 0 mm 1 mps 760 mmHg 64%
    17:00 +11°C° 0 mm 1 mps 761 mmHg 70%
    18:00 +9°C° 0 mm 1 mps 761 mmHg 76%
    19:00 +8°C° 0 mm 1 mps 761 mmHg 82%
    20:00 +7°C° 0 mm 1 mps 762 mmHg 82%
    21:00 +7°C° 0 mm 1 mps 762 mmHg 81%
    22:00 +5°C° 0 mm 2 mps 763 mmHg 81%
    23:00 +5°C° 0 mm 2 mps 763 mmHg 80%

    8 April, Wednesday

    Time Temperature Precipitation Wind Pressure Humidity
    00:00 +6°C° 0 mm 1 mps 763 mmHg 79%
    01:00 +6°C° 0 mm 1 mps 763 mmHg 79%
    02:00 +5°C° 0 mm 1 mps 763 mmHg 79%
    03:00 +5°C° 0 mm 1 mps 763 mmHg 78%
    04:00 +5°C° 0 mm 1 mps 763 mmHg 78%
    05:00 +6°C° 0 mm 1 mps 763 mmHg 75%
    06:00 +7°C° 0 mm 1 mps 763 mmHg 72%
    07:00 +7°C° 0 mm 1 mps 763 mmHg 69%
    08:00 +10°C° 0 mm 1 mps 763 mmHg 64%
    09:00 +12°C° 0 mm 1 mps 763 mmHg 58%
    10:00 +14°C° 0 mm 2 mps 762 mmHg 52%
    11:00 +15°C° 0 mm 2 mps 762 mmHg 50%
    12:00 +16°C° 0 mm 2 mps 762 mmHg 49%
    13:00 +17°C° 0 mm 2 mps 761 mmHg 47%
    14:00 +17°C° 0 mm 2 mps 761 mmHg 48%
    15:00 +16°C° 0 mm 1 mps 761 mmHg 48%
    16:00 +16°C° 0 mm 1 mps 761 mmHg 48%
    17:00 +14°C° 0 mm 1 mps 761 mmHg 56%
    18:00 +12°C° 0 mm 1 mps 761 mmHg 63%
    19:00 +10°C° 0 mm 1 mps 761 mmHg 70%
    20:00 +10°C° 0 mm 1 mps 762 mmHg 73%
    21:00 +9°C° 0 mm 1 mps 762 mmHg 75%
    22:00 +8°C° 0 mm 0 mps 762 mmHg 77%
    23:00 +8°C° 0 mm 1 mps 762 mmHg 78%
    Show more